User: anonymous   Login
Location: Black Rock Desert
(40.7548°N, 119.2364°W)
Time: 01:57:26
(UTC-07:00)
Language:

Cosmos 1340 Rocket - Orbit

View from above orbital plane
View from above orbital plane
View from above satellite
View from above satellite

Ground track
Ground track

The orbit data is extracted from the following two-line orbital elements,

1 13068U 82013B   18111.90412788 -.00000200 +00000-0 -14816-4 0  9991
2 13068 081.2045 229.9716 0021839 021.9374 338.2780 15.07129032969729
Epoch (UTC): 21 April 2018 21:41:56
Eccentricity: 0.0021839
inclination: 81.2045°
perigee height: 530 km
apogee height: 560 km
right ascension of ascending node: 229.9716°
argument of perigee: 21.9374°
revolutions per day: 15.07129032
mean anomaly at epoch: 338.2780°
orbit number at epoch: 96972

The dashed part of the orbit path shows where the satellite is in the earth's shadow,  

DLR